Location: Casone le Fosse
(44.6547°N, 12.1103°E)
Time: 11:47:56
(UTC+00:00)

Cosmos 1697 Rocket - Pass Details

Date: 29 October 2020
Orbit: 831 x 845 km, 71.0° (Epoch: 28 November)

Event Time Altitude Azimuth Distance (km) Brightness Sun altitude
Rises 17:05:29 0° 184° (S) 3,361 6.0 -11.4°
Reaches altitude 10° 17:08:00 10° 178° (S) 2,433 5.2 -11.9°
Maximum altitude 17:13:16 45° 108° (ESE) 1,132 3.0 -12.8°
Drops below altitude 10° 17:18:35 10° 37° (NE) 2,457 4.7 -13.7°
Enters shadow 17:19:39 - 34° (NE) 2,848 5.1 -13.9°
